owner,sensor,date,latitude,longitude,vertical_datum,direction_of_sea_water_velocity,sea_water_speed,upward_sea_water_velocity,qcFlag 
TABS,ioos:station:wmo:42047:1,2002-07-01T00:00:00Z,27.8966,-93.5973,2.0,63.28583162,24.04675654,-99999.0,'11111222,11111222,99999999' 
TABS,ioos:station:wmo:42047:1,2002-07-01T00:30:00Z,27.8966,-93.5973,2.0,73.62224311,22.02364638,-99999.0,'11111222,11111222,99999999' 
TABS,ioos:station:wmo:42047:1,2002-07-01T01:00:00Z,27.8966,-93.5973,2.0,77.54486634,21.09650445,-99999.0,'11111222,11111222,99999999' 
TABS,ioos:station:wmo:42047:1,2002-07-01T01:30:00Z,27.8966,-93.5973,2.0,90.11675103,19.63004075,-99999.0,'11111222,11111222,99999999' 
TABS,ioos:station:wmo:42047:1,2002-07-01T02:00:00Z,27.8966,-93.5973,2.0,93.38186831,17.46040664,-99999.0,'11111222,11111222,99999999' 
TABS,ioos:station:wmo:42047:1,2002-07-01T02:30:00Z,27.8966,-93.5973,2.0,101.2410962,19.59593835,-99999.0,'11111222,11111222,99999999' 
TABS,ioos:station:wmo:42047:1,2002-07-01T03:00:00Z,27.8966,-93.5973,2.0,113.7041261,16.66606132,-99999.0,'11111222,11111222,99999999' 
TABS,ioos:station:wmo:42047:1,2002-07-01T03:30:00Z,27.8966,-93.5973,2.0,125.44134,16.60716111,-99999.0,'11111222,11111222,99999999' 
TABS,ioos:station:wmo:42047:1,2002-07-01T04:00:00Z,27.8966,-93.5973,2.0,140.2616284,16.34647974,-99999.0,'11111222,11111222,99999999' 
TABS,ioos:station:wmo:42047:1,2002-07-01T04:30:00Z,27.8966,-93.5973,2.0,154.4260846,16.28548433,-99999.0,'11111222,11111222,99999999' 
TABS,ioos:station:wmo:42047:1,2002-07-01T05:00:00Z,27.8966,-93.5973,2.0,157.6179357,17.59553637,-99999.0,'11111222,11111222,99999999' 
TABS,ioos:station:wmo:42047:1,2002-07-01T05:30:00Z,27.8966,-93.5973,2.0,171.637222,20.21493507,-99999.0,'11111222,11111222,99999999' 
TABS,ioos:station:wmo:42047:1,2002-07-01T06:00:00Z,27.8966,-93.5973,2.0,182.0636044,19.99296876,-99999.0,'11111222,11111222,99999999' 
TABS,ioos:station:wmo:42047:1,2002-07-01T06:30:00Z,27.8966,-93.5973,2.0,189.0599153,21.78175842,-99999.0,'11111222,11111222,99999999' 
TABS,ioos:station:wmo:42047:1,2002-07-01T07:00:00Z,27.8966,-93.5973,2.0,190.4500481,24.31329266,-99999.0,'11111222,11111222,99999999' 
TABS,ioos:station:wmo:42047:1,2002-07-01T07:30:00Z,27.8966,-93.5973,2.0,201.1901935,24.20676352,-99999.0,'11111222,11111222,99999999' 
TABS,ioos:station:wmo:42047:1,2002-07-01T08:00:00Z,27.8966,-93.5973,2.0,206.0653839,22.57619986,-99999.0,'11111222,11111222,99999999' 
TABS,ioos:station:wmo:42047:1,2002-07-01T08:30:00Z,27.8966,-93.5973,2.0,213.1221903,24.35808079,-99999.0,'11111222,11111222,99999999' 
TABS,ioos:station:wmo:42047:1,2002-07-01T09:00:00Z,27.8966,-93.5973,2.0,222.1240956,26.0755767,-99999.0,'11111222,11111222,99999999' 
TABS,ioos:station:wmo:42047:1,2002-07-01T09:30:00Z,27.8966,-93.5973,2.0,240.1163007,21.55605947,-99999.0,'11111222,11111222,99999999' 
TABS,ioos:station:wmo:42047:1,2002-07-01T10:00:00Z,27.8966,-93.5973,2.0,244.552296,21.55085149,-99999.0,'11111222,11111222,99999999' 
TABS,ioos:station:wmo:42047:1,2002-07-01T10:30:00Z,27.8966,-93.5973,2.0,243.7004098,23.13460827,-99999.0,'11111222,11111222,99999999' 
TABS,ioos:station:wmo:42047:1,2002-07-01T11:00:00Z,27.8966,-93.5973,2.0,252.6188003,24.23663549,-99999.0,'11111222,11111222,99999999' 
TABS,ioos:station:wmo:42047:1,2002-07-01T11:30:00Z,27.8966,-93.5973,2.0,259.5761658,28.52066093,-99999.0,'11111222,11111222,99999999' 
TABS,ioos:station:wmo:42047:1,2002-07-01T12:00:00Z,27.8966,-93.5973,2.0,268.1163871,26.47429886,-99999.0,'11111222,11111222,99999999' 
TABS,ioos:station:wmo:42047:1,2002-07-01T12:30:00Z,27.8966,-93.5973,2.0,274.6572398,26.72823414,-99999.0,'11111222,11111222,99999999' 
TABS,ioos:station:wmo:42047:1,2002-07-01T13:00:00Z,27.8966,-93.5973,2.0,278.3114917,31.3391289,-99999.0,'11111222,11111222,99999999' 
TABS,ioos:station:wmo:42047:1,2002-07-01T13:30:00Z,27.8966,-93.5973,2.0,287.123253,29.27771849,-99999.0,'11111222,11111222,99999999' 
TABS,ioos:station:wmo:42047:1,2002-07-01T14:00:00Z,27.8966,-93.5973,2.0,294.4159122,31.71634437,-99999.0,'11111222,11111222,99999999' 
TABS,ioos:station:wmo:42047:1,2002-07-01T14:30:00Z,27.8966,-93.5973,2.0,299.7430998,33.31945078,-99999.0,'11111222,11111222,99999999' 
TABS,ioos:station:wmo:42047:1,2002-07-01T15:30:00Z,27.8966,-93.5973,2.0,315.6856888,37.83291953,-99999.0,'11111222,11111222,99999999' 
TABS,ioos:station:wmo:42047:1,2002-07-01T16:00:00Z,27.8966,-93.5973,2.0,318.4304058,36.63719695,-99999.0,'11111222,11111222,99999999' 
TABS,ioos:station:wmo:42047:1,2002-07-01T16:30:00Z,27.8966,-93.5973,2.0,322.1648335,35.60505582,-99999.0,'11111222,11111222,99999999' 
TABS,ioos:station:wmo:42047:1,2002-07-01T17:00:00Z,27.8966,-93.5973,2.0,323.056242,37.08603106,-99999.0,'11111222,11111222,99999999' 
TABS,ioos:station:wmo:42047:1,2002-07-01T17:30:00Z,27.8966,-93.5973,2.0,325.5379225,35.80360317,-99999.0,'11111222,11111222,99999999' 
TABS,ioos:station:wmo:42047:1,2002-07-01T18:30:00Z,27.8966,-93.5973,2.0,339.3565017,33.64000595,-99999.0,'11111222,11111222,99999999' 
TABS,ioos:station:wmo:42047:1,2002-07-01T19:00:00Z,27.8966,-93.5973,2.0,349.6840581,36.18494715,-99999.0,'11111222,11111222,99999999' 
TABS,ioos:station:wmo:42047:1,2002-07-01T19:30:00Z,27.8966,-93.5973,2.0,354.7047086,36.94769546,-99999.0,'11111222,11111222,99999999' 
TABS,ioos:station:wmo:42047:1,2002-07-01T20:00:00Z,27.8966,-93.5973,2.0,355.9848931,34.84553343,-99999.0,'11111222,11111222,99999999' 
TABS,ioos:station:wmo:42047:1,2002-07-01T20:30:00Z,27.8966,-93.5973,2.0,5.562188065,39.51604484,-99999.0,'11111222,11111222,99999999' 
TABS,ioos:station:wmo:42047:1,2002-07-01T21:30:00Z,27.8966,-93.5973,2.0,20.05104581,42.61282671,-99999.0,'11111222,11111222,99999999' 
TABS,ioos:station:wmo:42047:1,2002-07-01T22:00:00Z,27.8966,-93.5973,2.0,28.02690424,36.11530562,-99999.0,'11111222,11111222,99999999' 
TABS,ioos:station:wmo:42047:1,2002-07-01T22:30:00Z,27.8966,-93.5973,2.0,33.82337472,36.99028251,-99999.0,'11111222,11111222,99999999' 
TABS,ioos:station:wmo:42047:1,2002-07-01T23:00:00Z,27.8966,-93.5973,2.0,39.32298136,33.73891522,-99999.0,'11111222,11111222,99999999' 
TABS,ioos:station:wmo:42047:1,2002-07-01T23:30:00Z,27.8966,-93.5973,2.0,44.19856883,33.86665764,-99999.0,'11111222,11111222,99999999' 
TABS,ioos:station:wmo:42047:1,2002-07-02T00:30:00Z,27.8966,-93.5973,2.0,58.51185057,32.41287553,-99999.0,'11111222,11111222,99999999' 
TABS,ioos:station:wmo:42047:1,2002-07-02T01:00:00Z,27.8966,-93.5973,2.0,64.79707219,32.73634066,-99999.0,'11111222,11111222,99999999' 
TABS,ioos:station:wmo:42047:1,2002-07-02T01:30:00Z,27.8966,-93.5973,2.0,75.14007373,33.57282532,-99999.0,'11111222,11111222,99999999' 
TABS,ioos:station:wmo:42047:1,2002-07-02T02:00:00Z,27.8966,-93.5973,2.0,78.29852239,28.69638305,-99999.0,'11111222,11111222,99999999' 
TABS,ioos:station:wmo:42047:1,2002-07-02T02:30:00Z,27.8966,-93.5973,2.0,81.49597583,29.68638914,-99999.0,'11111222,11111222,99999999' 
TABS,ioos:station:wmo:42047:1,2002-07-02T03:30:00Z,27.8966,-93.5973,2.0,98.31332785,26.97343323,-99999.0,'11111222,11111222,99999999' 
TABS,ioos:station:wmo:42047:1,2002-07-02T04:00:00Z,27.8966,-93.5973,2.0,100.7521614,29.21288243,-99999.0,'11111222,11111222,99999999' 
TABS,ioos:station:wmo:42047:1,2002-07-02T04:30:00Z,27.8966,-93.5973,2.0,109.2921694,24.94051323,-99999.0,'11111222,11111222,99999999' 
TABS,ioos:station:wmo:42047:1,2002-07-02T05:00:00Z,27.8966,-93.5973,2.0,121.3066744,25.21074374,-99999.0,'11111222,11111222,99999999' 
TABS,ioos:station:wmo:42047:1,2002-07-02T05:30:00Z,27.8966,-93.5973,2.0,131.1940557,26.20660222,-99999.0,'11111222,11111222,99999999' 
TABS,ioos:station:wmo:42047:1,2002-07-02T06:30:00Z,27.8966,-93.5973,2.0,144.5731678,25.80818669,-99999.0,'11111222,11111222,99999999' 
TABS,ioos:station:wmo:42047:1,2002-07-02T07:00:00Z,27.8966,-93.5973,2.0,158.0926256,27.15056169,-99999.0,'11111222,11111222,99999999' 
TABS,ioos:station:wmo:42047:1,2002-07-02T07:30:00Z,27.8966,-93.5973,2.0,168.9032196,26.86221324,-99999.0,'11111222,11111222,99999999' 
TABS,ioos:station:wmo:42047:1,2002-07-02T08:00:00Z,27.8966,-93.5973,2.0,177.7138689,19.55556187,-99999.0,'11111222,11111222,99999999' 
TABS,ioos:station:wmo:42047:1,2002-07-02T08:30:00Z,27.8966,-93.5973,2.0,195.2727607,19.66451881,-99999.0,'11111222,11111222,99999999' 
TABS,ioos:station:wmo:42047:1,2002-07-02T09:30:00Z,27.8966,-93.5973,2.0,206.4637282,17.74993521,-99999.0,'11111222,11111222,99999999' 
TABS,ioos:station:wmo:42047:1,2002-07-02T10:00:00Z,27.8966,-93.5973,2.0,215.8269238,19.78327577,-99999.0,'11111222,11111222,99999999' 
TABS,ioos:station:wmo:42047:1,2002-07-02T10:30:00Z,27.8966,-93.5973,2.0,228.8025777,19.29700754,-99999.0,'11111222,11111222,99999999' 
TABS,ioos:station:wmo:42047:1,2002-07-02T11:00:00Z,27.8966,-93.5973,2.0,244.3553578,18.92405083,-99999.0,'11111222,11111222,99999999' 
TABS,ioos:station:wmo:42047:1,2002-07-02T11:30:00Z,27.8966,-93.5973,2.0,254.9410338,21.47752313,-99999.0,'11111222,11111222,99999999' 
TABS,ioos:station:wmo:42047:1,2002-07-02T12:30:00Z,27.8966,-93.5973,2.0,275.3266215,20.46837561,-99999.0,'11111222,11111222,99999999' 
TABS,ioos:station:wmo:42047:1,2002-07-02T13:00:00Z,27.8966,-93.5973,2.0,282.6307726,22.6378135,-99999.0,'11111222,11111222,99999999' 
TABS,ioos:station:wmo:42047:1,2002-07-02T13:30:00Z,27.8966,-93.5973,2.0,290.6214721,23.70904047,-99999.0,'11111222,11111222,99999999' 
TABS,ioos:station:wmo:42047:1,2002-07-02T14:00:00Z,27.8966,-93.5973,2.0,296.763088,24.62819928,-99999.0,'11111222,11111222,99999999' 
TABS,ioos:station:wmo:42047:1,2002-07-02T14:30:00Z,27.8966,-93.5973,2.0,305.2031366,26.05502831,-99999.0,'11111222,11111222,99999999' 
TABS,ioos:station:wmo:42047:1,2002-07-02T15:30:00Z,27.8966,-93.5973,2.0,315.8957244,26.69654097,-99999.0,'11111222,11111222,99999999' 
TABS,ioos:station:wmo:42047:1,2002-07-02T16:00:00Z,27.8966,-93.5973,2.0,315.8426281,28.37926179,-99999.0,'11111222,11111222,99999999' 
TABS,ioos:station:wmo:42047:1,2002-07-02T16:30:00Z,27.8966,-93.5973,2.0,327.1156804,27.42431403,-99999.0,'11111222,11111222,99999999' 
TABS,ioos:station:wmo:42047:1,2002-07-02T17:00:00Z,27.8966,-93.5973,2.0,326.1580424,27.14989687,-99999.0,'11111222,11111222,99999999' 
TABS,ioos:station:wmo:42047:1,2002-07-02T17:30:00Z,27.8966,-93.5973,2.0,325.469844,22.88107078,-99999.0,'11111222,11111222,99999999' 
TABS,ioos:station:wmo:42047:1,2002-07-02T18:30:00Z,27.8966,-93.5973,2.0,341.4140251,27.54669672,-99999.0,'11111222,11111222,99999999' 
TABS,ioos:station:wmo:42047:1,2002-07-02T19:00:00Z,27.8966,-93.5973,2.0,346.9566177,23.66047548,-99999.0,'11111222,11111222,99999999' 
TABS,ioos:station:wmo:42047:1,2002-07-02T19:30:00Z,27.8966,-93.5973,2.0,344.929778,21.49943488,-99999.0,'11111222,11111222,99999999' 
TABS,ioos:station:wmo:42047:1,2002-07-02T20:00:00Z,27.8966,-93.5973,2.0,350.9912168,27.01324305,-99999.0,'11111222,11111222,99999999' 
TABS,ioos:station:wmo:42047:1,2002-07-02T20:30:00Z,27.8966,-93.5973,2.0,349.7356521,31.81925518,-99999.0,'11111222,11111222,99999999' 
TABS,ioos:station:wmo:42047:1,2002-07-02T21:00:00Z,27.8966,-93.5973,2.0,356.8933947,27.86094937,-99999.0,'11111222,11111222,99999999' 
TABS,ioos:station:wmo:42047:1,2002-07-02T21:30:00Z,27.8966,-93.5973,2.0,359.9131681,26.33003038,-99999.0,'11111222,11144222,99999999' 
TABS,ioos:station:wmo:42047:1,2002-07-02T22:00:00Z,27.8966,-93.5973,2.0,7.753753746,26.68395773,-99999.0,'11111222,11111222,99999999' 
TABS,ioos:station:wmo:42047:1,2002-07-02T22:30:00Z,27.8966,-93.5973,2.0,18.34000582,32.38493014,-99999.0,'11111222,11111222,99999999' 
TABS,ioos:station:wmo:42047:1,2002-07-02T23:00:00Z,27.8966,-93.5973,2.0,25.82166679,31.70564145,-99999.0,'11111222,11111222,99999999' 
TABS,ioos:station:wmo:42047:1,2002-07-02T23:30:00Z,27.8966,-93.5973,2.0,32.2483351,32.51572696,-99999.0,'11111222,11111222,99999999' 
TABS,ioos:station:wmo:42047:1,2002-07-03T00:00:00Z,27.8966,-93.5973,2.0,38.89830406,31.53175542,-99999.0,'11111222,11111222,99999999' 
TABS,ioos:station:wmo:42047:1,2002-07-03T00:30:00Z,27.8966,-93.5973,2.0,41.17525899,29.9986483,-99999.0,'11111222,11111222,99999999' 
TABS,ioos:station:wmo:42047:1,2002-07-03T01:00:00Z,27.8966,-93.5973,2.0,51.25290692,31.74703923,-99999.0,'11111222,11111222,99999999' 
TABS,ioos:station:wmo:42047:1,2002-07-03T01:30:00Z,27.8966,-93.5973,2.0,58.1659523,27.66076825,-99999.0,'11111222,11111222,99999999' 
TABS,ioos:station:wmo:42047:1,2002-07-03T02:00:00Z,27.8966,-93.5973,2.0,61.84982175,29.9076746,-99999.0,'11111222,11111222,99999999' 
TABS,ioos:station:wmo:42047:1,2002-07-03T02:30:00Z,27.8966,-93.5973,2.0,68.32051453,27.93606987,-99999.0,'11111222,11111222,99999999' 
TABS,ioos:station:wmo:42047:1,2002-07-03T03:00:00Z,27.8966,-93.5973,2.0,72.52880797,28.57838344,-99999.0,'11111222,11111222,99999999' 
TABS,ioos:station:wmo:42047:1,2002-07-03T03:30:00Z,27.8966,-93.5973,2.0,75.14028514,29.86892198,-99999.0,'11111222,11111222,99999999' 
TABS,ioos:station:wmo:42047:1,2002-07-03T04:00:00Z,27.8966,-93.5973,2.0,84.20460201,31.59147037,-99999.0,'11111222,11111222,99999999' 
TABS,ioos:station:wmo:42047:1,2002-07-03T04:30:00Z,27.8966,-93.5973,2.0,87.68160438,29.66428155,-99999.0,'11111222,11111222,99999999' 
TABS,ioos:station:wmo:42047:1,2002-07-03T05:00:00Z,27.8966,-93.5973,2.0,93.89792474,30.45044006,-99999.0,'11111222,11111222,99999999' 
TABS,ioos:station:wmo:42047:1,2002-07-03T05:30:00Z,27.8966,-93.5973,2.0,103.6927505,28.72643556,-99999.0,'11111222,11111222,99999999' 
TABS,ioos:station:wmo:42047:1,2002-07-03T06:00:00Z,27.8966,-93.5973,2.0,107.2649554,27.25819143,-99999.0,'11111222,11111222,99999999' 
TABS,ioos:station:wmo:42047:1,2002-07-03T06:30:00Z,27.8966,-93.5973,2.0,115.7853081,26.62061795,-99999.0,'11111222,11111222,99999999' 
TABS,ioos:station:wmo:42047:1,2002-07-03T07:00:00Z,27.8966,-93.5973,2.0,124.3647244,24.02295777,-99999.0,'11111222,11111222,99999999' 
TABS,ioos:station:wmo:42047:1,2002-07-03T07:30:00Z,27.8966,-93.5973,2.0,132.4727233,22.45126277,-99999.0,'11111222,11111222,99999999' 
TABS,ioos:station:wmo:42047:1,2002-07-03T08:00:00Z,27.8966,-93.5973,2.0,132.6460881,21.52127552,-99999.0,'11111222,11111222,99999999' 
TABS,ioos:station:wmo:42047:1,2002-07-03T08:30:00Z,27.8966,-93.5973,2.0,138.5069658,18.61054808,-99999.0,'11111222,11111222,99999999' 
TABS,ioos:station:wmo:42047:1,2002-07-03T09:00:00Z,27.8966,-93.5973,2.0,151.778883,17.02358658,-99999.0,'11111222,11111222,99999999' 
TABS,ioos:station:wmo:42047:1,2002-07-03T09:30:00Z,27.8966,-93.5973,2.0,164.2157964,14.6317053,-99999.0,'11111222,11111222,99999999' 
TABS,ioos:station:wmo:42047:1,2002-07-03T10:00:00Z,27.8966,-93.5973,2.0,174.7899292,13.4355052,-99999.0,'11111222,11111222,99999999' 
TABS,ioos:station:wmo:42047:1,2002-07-03T10:30:00Z,27.8966,-93.5973,2.0,190.8121144,12.42050321,-99999.0,'11111222,11111222,99999999' 
TABS,ioos:station:wmo:42047:1,2002-07-03T11:00:00Z,27.8966,-93.5973,2.0,186.4806354,11.69473386,-99999.0,'11111222,11111222,99999999' 
TABS,ioos:station:wmo:42047:1,2002-07-03T11:30:00Z,27.8966,-93.5973,2.0,194.8128427,12.16427967,-99999.0,'11111222,11111222,99999999' 
TABS,ioos:station:wmo:42047:1,2002-07-03T12:00:00Z,27.8966,-93.5973,2.0,215.8702888,9.403430225,-99999.0,'11133222,11111222,99999999' 
TABS,ioos:station:wmo:42047:1,2002-07-03T12:30:00Z,27.8966,-93.5973,2.0,228.8547489,10.517262,-99999.0,'11111222,11111222,99999999' 
TABS,ioos:station:wmo:42047:1,2002-07-03T13:00:00Z,27.8966,-93.5973,2.0,240.6589139,12.83667402,-99999.0,'11111222,11111222,99999999' 
TABS,ioos:station:wmo:42047:1,2002-07-03T13:30:00Z,27.8966,-93.5973,2.0,245.1109587,12.6884081,-99999.0,'11111222,11111222,99999999' 
TABS,ioos:station:wmo:42047:1,2002-07-03T14:00:00Z,27.8966,-93.5973,2.0,246.5356115,15.87249193,-99999.0,'11111222,11111222,99999999' 
TABS,ioos:station:wmo:42047:1,2002-07-03T14:30:00Z,27.8966,-93.5973,2.0,256.1885656,16.04385552,-99999.0,'11111222,11111222,99999999' 
TABS,ioos:station:wmo:42047:1,2002-07-03T15:00:00Z,27.8966,-93.5973,2.0,281.3240308,16.39923169,-99999.0,'11111222,11111222,99999999' 
TABS,ioos:station:wmo:42047:1,2002-07-03T15:30:00Z,27.8966,-93.5973,2.0,276.9871091,18.49735386,-99999.0,'11111222,11111222,99999999' 
TABS,ioos:station:wmo:42047:1,2002-07-03T16:00:00Z,27.8966,-93.5973,2.0,285.985849,21.60544839,-99999.0,'11111222,11111222,99999999' 
TABS,ioos:station:wmo:42047:1,2002-07-03T16:30:00Z,27.8966,-93.5973,2.0,282.8243742,21.89616633,-99999.0,'11111222,11111222,99999999' 
TABS,ioos:station:wmo:42047:1,2002-07-03T17:00:00Z,27.8966,-93.5973,2.0,304.8559568,21.67939575,-99999.0,'11111222,11111222,99999999' 
TABS,ioos:station:wmo:42047:1,2002-07-03T17:30:00Z,27.8966,-93.5973,2.0,312.1587472,20.39682573,-99999.0,'11111222,11111222,99999999' 
TABS,ioos:station:wmo:42047:1,2002-07-03T18:00:00Z,27.8966,-93.5973,2.0,317.6493663,22.9489259,-99999.0,'11111222,11111222,99999999' 
TABS,ioos:station:wmo:42047:1,2002-07-03T18:30:00Z,27.8966,-93.5973,2.0,331.5161605,24.97299742,-99999.0,'11111222,11111222,99999999' 
TABS,ioos:station:wmo:42047:1,2002-07-03T19:00:00Z,27.8966,-93.5973,2.0,343.7942497,23.25401041,-99999.0,'11111222,11111222,99999999' 
TABS,ioos:station:wmo:42047:1,2002-07-03T19:30:00Z,27.8966,-93.5973,2.0,348.082774,26.63406841,-99999.0,'11111222,11111222,99999999' 
TABS,ioos:station:wmo:42047:1,2002-07-03T20:00:00Z,27.8966,-93.5973,2.0,353.461968,25.55621646,-99999.0,'11111222,11111222,99999999' 
TABS,ioos:station:wmo:42047:1,2002-07-03T20:30:00Z,27.8966,-93.5973,2.0,351.6147081,28.8686283,-99999.0,'11111222,11111222,99999999' 
TABS,ioos:station:wmo:42047:1,2002-07-03T21:00:00Z,27.8966,-93.5973,2.0,358.3393305,27.60159597,-99999.0,'11111222,11111222,99999999' 
TABS,ioos:station:wmo:42047:1,2002-07-03T21:30:00Z,27.8966,-93.5973,2.0,358.3579872,28.96189566,-99999.0,'11111222,11111222,99999999' 
TABS,ioos:station:wmo:42047:1,2002-07-03T22:00:00Z,27.8966,-93.5973,2.0,7.621913985,30.76177011,-99999.0,'11111222,11111222,99999999' 
TABS,ioos:station:wmo:42047:1,2002-07-03T22:30:00Z,27.8966,-93.5973,2.0,12.12985858,28.64961605,-99999.0,'11111222,11111222,99999999' 
TABS,ioos:station:wmo:42047:1,2002-07-03T23:00:00Z,27.8966,-93.5973,2.0,17.53005773,26.62653751,-99999.0,'11111222,11111222,99999999' 
TABS,ioos:station:wmo:42047:1,2002-07-03T23:30:00Z,27.8966,-93.5973,2.0,17.93098512,27.67416304,-99999.0,'11111222,11111222,99999999' 
TABS,ioos:station:wmo:42047:1,2002-07-04T00:00:00Z,27.8966,-93.5973,2.0,27.60949078,29.69097001,-99999.0,'11111222,11111222,99999999' 
TABS,ioos:station:wmo:42047:1,2002-07-04T00:30:00Z,27.8966,-93.5973,2.0,32.70006457,25.35913248,-99999.0,'11111222,11111222,99999999' 
TABS,ioos:station:wmo:42047:1,2002-07-04T01:00:00Z,27.8966,-93.5973,2.0,33.1518667,24.79619326,-99999.0,'11111222,11111222,99999999' 
TABS,ioos:station:wmo:42047:1,2002-07-04T01:30:00Z,27.8966,-93.5973,2.0,40.33589021,25.04380562,-99999.0,'11111222,11111222,99999999' 
TABS,ioos:station:wmo:42047:1,2002-07-04T02:00:00Z,27.8966,-93.5973,2.0,47.63491257,27.37983565,-99999.0,'11111222,11111222,99999999' 
TABS,ioos:station:wmo:42047:1,2002-07-04T02:30:00Z,27.8966,-93.5973,2.0,47.47313109,27.6948822,-99999.0,'11111222,11111222,99999999' 
TABS,ioos:station:wmo:42047:1,2002-07-04T03:00:00Z,27.8966,-93.5973,2.0,53.04234396,27.3940322,-99999.0,'11111222,11111222,99999999' 
TABS,ioos:station:wmo:42047:1,2002-07-04T03:30:00Z,27.8966,-93.5973,2.0,59.7363251,28.21533803,-99999.0,'11111222,11111222,99999999' 
TABS,ioos:station:wmo:42047:1,2002-07-04T04:00:00Z,27.8966,-93.5973,2.0,64.14164001,27.55939767,-99999.0,'11111222,11111222,99999999' 
TABS,ioos:station:wmo:42047:1,2002-07-04T04:30:00Z,27.8966,-93.5973,2.0,73.54654795,26.79735248,-99999.0,'11111222,11111222,99999999' 
TABS,ioos:station:wmo:42047:1,2002-07-04T05:00:00Z,27.8966,-93.5973,2.0,80.75533323,27.6997852,-99999.0,'11111222,11111222,99999999' 
TABS,ioos:station:wmo:42047:1,2002-07-04T05:30:00Z,27.8966,-93.5973,2.0,84.28942022,25.62718283,-99999.0,'11111222,11111222,99999999' 
TABS,ioos:station:wmo:42047:1,2002-07-04T06:00:00Z,27.8966,-93.5973,2.0,85.795009,23.59351182,-99999.0,'11111222,11111222,99999999' 
TABS,ioos:station:wmo:42047:1,2002-07-04T06:30:00Z,27.8966,-93.5973,2.0,89.51746829,22.56080007,-99999.0,'11111222,11111222,99999999' 
TABS,ioos:station:wmo:42047:1,2002-07-04T07:00:00Z,27.8966,-93.5973,2.0,93.35100051,23.95095196,-99999.0,'11111222,11111222,99999999' 
TABS,ioos:station:wmo:42047:1,2002-07-04T07:30:00Z,27.8966,-93.5973,2.0,98.47225632,21.31257845,-99999.0,'11111222,11111222,99999999' 
TABS,ioos:station:wmo:42047:1,2002-07-04T08:00:00Z,27.8966,-93.5973,2.0,102.7595631,20.46538541,-99999.0,'11111222,11111222,99999999' 
TABS,ioos:station:wmo:42047:1,2002-07-04T08:30:00Z,27.8966,-93.5973,2.0,102.1402196,19.35281117,-99999.0,'11111222,11111222,99999999' 
TABS,ioos:station:wmo:42047:1,2002-07-04T09:00:00Z,27.8966,-93.5973,2.0,106.9139578,17.63274794,-99999.0,'11111222,11111222,99999999' 
TABS,ioos:station:wmo:42047:1,2002-07-04T09:30:00Z,27.8966,-93.5973,2.0,114.2688238,18.41762743,-99999.0,'11111222,11111222,99999999' 
TABS,ioos:station:wmo:42047:1,2002-07-04T10:00:00Z,27.8966,-93.5973,2.0,108.1549618,15.53329328,-99999.0,'11111222,11111222,99999999' 
TABS,ioos:station:wmo:42047:1,2002-07-04T10:30:00Z,27.8966,-93.5973,2.0,115.0240122,14.46812013,-99999.0,'11111222,11111222,99999999' 
TABS,ioos:station:wmo:42047:1,2002-07-04T11:00:00Z,27.8966,-93.5973,2.0,139.9768489,12.14438553,-99999.0,'11111222,11111222,99999999' 
TABS,ioos:station:wmo:42047:1,2002-07-04T11:30:00Z,27.8966,-93.5973,2.0,145.7664963,6.434811575,-99999.0,'11133222,11111222,99999999' 
TABS,ioos:station:wmo:42047:1,2002-07-04T12:00:00Z,27.8966,-93.5973,2.0,154.8588576,5.578476495,-99999.0,'11133222,11111222,99999999' 
TABS,ioos:station:wmo:42047:1,2002-07-04T12:30:00Z,27.8966,-93.5973,2.0,132.2320314,5.564350816,-99999.0,'11133222,11111222,99999999' 
TABS,ioos:station:wmo:42047:1,2002-07-04T13:00:00Z,27.8966,-93.5973,2.0,163.6536211,7.461608406,-99999.0,'11133222,11111222,99999999' 
TABS,ioos:station:wmo:42047:1,2002-07-04T13:30:00Z,27.8966,-93.5973,2.0,139.3662133,5.758419922,-99999.0,'11133222,11111222,99999999' 
TABS,ioos:station:wmo:42047:1,2002-07-04T14:00:00Z,27.8966,-93.5973,2.0,163.2540782,9.440338977,-99999.0,'11133222,11111222,99999999' 
TABS,ioos:station:wmo:42047:1,2002-07-04T14:30:00Z,27.8966,-93.5973,2.0,162.6283612,3.918737041,-99999.0,'11133222,11111222,99999999' 
TABS,ioos:station:wmo:42047:1,2002-07-04T15:00:00Z,27.8966,-93.5973,2.0,141.5063263,4.305728742,-99999.0,'11133222,11111222,99999999' 
TABS,ioos:station:wmo:42047:1,2002-07-04T15:30:00Z,27.8966,-93.5973,2.0,172.3037558,1.120089282,-99999.0,'11133222,11111222,99999999' 
TABS,ioos:station:wmo:42047:1,2002-07-04T16:00:00Z,27.8966,-93.5973,2.0,231.5566155,3.715400382,-99999.0,'11133222,11111222,99999999' 
TABS,ioos:station:wmo:42047:1,2002-07-04T16:30:00Z,27.8966,-93.5973,2.0,288.4353266,1.39140217,-99999.0,'11133222,11111222,99999999' 
TABS,ioos:station:wmo:42047:1,2002-07-04T17:00:00Z,27.8966,-93.5973,2.0,300.0445107,4.274295264,-99999.0,'11133222,11111222,99999999' 
TABS,ioos:station:wmo:42047:1,2002-07-04T17:30:00Z,27.8966,-93.5973,2.0,316.5358994,8.707611613,-99999.0,'11133222,11111222,99999999' 
TABS,ioos:station:wmo:42047:1,2002-07-04T18:00:00Z,27.8966,-93.5973,2.0,330.1749274,11.48066636,-99999.0,'11111222,11111222,99999999' 
TABS,ioos:station:wmo:42047:1,2002-07-04T18:30:00Z,27.8966,-93.5973,2.0,327.7172408,13.78013425,-99999.0,'11111222,11111222,99999999' 
TABS,ioos:station:wmo:42047:1,2002-07-04T19:00:00Z,27.8966,-93.5973,2.0,301.4851181,11.3159445,-99999.0,'11111222,11111222,99999999' 
TABS,ioos:station:wmo:42047:1,2002-07-04T19:30:00Z,27.8966,-93.5973,2.0,325.5819265,18.9833743,-99999.0,'11111222,11111222,99999999' 
TABS,ioos:station:wmo:42047:1,2002-07-04T20:00:00Z,27.8966,-93.5973,2.0,325.1847153,18.35579745,-99999.0,'11111222,11111222,99999999' 
TABS,ioos:station:wmo:42047:1,2002-07-04T20:30:00Z,27.8966,-93.5973,2.0,332.6047106,18.82072528,-99999.0,'11111222,11111222,99999999' 
TABS,ioos:station:wmo:42047:1,2002-07-04T21:00:00Z,27.8966,-93.5973,2.0,338.198852,21.54065923,-99999.0,'11111222,11111222,99999999' 